Hourly Data Report for October 29, 2012

All times are specified in Local Standard Time (LST). Add 1 hour to adjust for Daylight Saving Time where and when it is observed.

IQALUIT CLIMATE
NUNAVUT

63°44'50.000" N
68°32'40.000" W
33.50 m
2402592
71321
XFB

Download Data

Hourly Data (October 2012)
Hourly Data Report for October 29, 2012
Temp Definition
°C
Dew Point Temp Definition
°C
Rel Hum Definition
%
Wind Dir Definition
10's deg

Wind Spd Definition
km/h
Visibility Definition
km
Stn Press Definition
kPa
Hmdx Definition


Wind Chill Definition


Weather Definition


TIME
00:00 -2.4 -4.7 84 25 6   102.77   -5 LegendNANA
01:00 -1.9 -4.6 82 24 11   102.78   -6 LegendNANA
02:00 -2.3 -4.8 83 19 4   102.82   -4 LegendNANA
03:00 -1.9 -4.4 83 25 11   102.89   -6 LegendNANA
04:00 -2.1 -4.7 82 23 13   102.94   -7 LegendNANA
05:00 -2.9 -5.2 84 26 7   102.98   -6 LegendNANA
06:00 -4.6 -5.5 93 35 4   103.03   -6 LegendNANA
07:00 -4.2 -6.0 87 29 9   103.06   -8 LegendNANA
08:00 -6.0 -7.5 89 36 2   103.09   -7 LegendNANA
09:00 -4.9 -6.8 87 5 4   103.10   -7 LegendNANA
10:00 -4.5 -7.1 82 28 2   103.12   -5 LegendNANA
11:00 -5.4 -7.5 85 1 6   103.11   -8 LegendNANA
12:00 -4.9 -6.6 88 3 6   103.14   -8 LegendNANA
13:00 -4.8 -7.3 83 6 6   103.15   -8 LegendNANA
14:00 -4.7 -6.8 85 2 6   103.17   -7 LegendNANA
15:00 -4.4 -6.2 87 6 6   103.21   -7 LegendNANA
16:00 -4.6 -6.5 87 10 2   103.21   -5 LegendNANA
17:00 -4.6 -6.4 87 35 4   103.23   -6 LegendNANA
18:00 -3.6 -5.5 87   0   103.22     LegendNANA
19:00 -4.0 -4.8 94 34 6   103.20   -7 LegendNANA
20:00 -3.8 -4.4 96 36 6   103.18   -6 LegendNANA
21:00 -4.9 -5.6 95 33 7   103.17   -8 LegendNANA
22:00 -5.8 -6.5 95 1 7   103.15   -9 LegendNANA
23:00 -4.6 -5.6 93 35 7   103.12   -8 LegendNANA

Notes on Data Quality.

Legend

  • E = Estimated
  • M = Missing
  • NA = Not Available
  • ‡ = Partner data that is not subject to review by the National Climate Archives
Date modified: